Weather History for KNRB - October, 2013

Change the Weather History Date:

Friday, October 4, 2013

  Actual Average Record
Temperature  
Mean Temperature 78 °F -  
Max Temperature 84 °F 80 °F 87 °F (2006)
Min Temperature 73 °F 70 °F 60 °F (2010)
Cooling Degree Days 12    
Growing Degree Days 28 (Base 50)    
Moisture  
Dew Point 73 °F    
Average Humidity 84    
Maximum Humidity 97    
Minimum Humidity 72    
Precipitation  
Precipitation 0.00 in - - ()
Sea Level Pressure  
Sea Level Pressure 30.08 in    
Wind  
Wind Speed 7 mph (NE)    
Max Wind Speed 15 mph    
Max Gust Speed -    
Visibility 10 miles    
Events      
Averages and records for this station are not official NWS values.
T = Trace of Precipitation, MM = Missing Value Source: NWS Daily Summary

Daily Weather History Graph

Daily Weather History Graph

Search for Another Location

Airport or City:

Trip Planner

Search our weather history database for the weather conditions in past years. The results will help you decide how hot, cold, wet, or windy it might be!

Date:

Astronomy

Oct. 04, 2013 Rise Set
Actual Time 7:21 AM EDT 7:07 PM EDT
Civil Twilight 6:57 AM EDT 7:31 PM EDT
Nautical Twilight 6:29 AM EDT 7:58 PM EDT
Astronomical Twilight 6:01 AM EDT 8:26 PM EDT
Moon 6:54 AM EDT (10/4) 6:51 PM EDT (10/4)
Length of Visible Light 12h 33m
Length of Day
11h 45m
Waning Crescent, 0% of the Moon is Illuminated
Oct 4
Waning Crescent
Oct 4
New
Oct 11
First Quarter
Oct 18
Full
Oct 26
Last Quarter

Hourly Weather History & Observations

Time (EDT) Temp. Heat Index Dew Point Humidity Pressure Visibility Wind Dir Wind Speed Gust Speed Precip Events Conditions
12:52 AM 75.9 °F - 73.0 °F 91% 30.08 in 10.0 mi ENE 5.8 mph - N/A   Scattered Clouds
1:52 AM 75.9 °F - 73.0 °F 91% 30.07 in 10.0 mi ENE 8.1 mph - N/A   Mostly Cloudy
2:52 AM 75.9 °F - 73.0 °F 91% 30.06 in 10.0 mi ENE 6.9 mph - N/A   Overcast
3:52 AM 75.0 °F - 73.0 °F 94% 30.05 in 10.0 mi ENE 5.8 mph - N/A   Clear
4:52 AM 75.0 °F - 72.0 °F 90% 30.05 in 10.0 mi ENE 4.6 mph - N/A   Clear
5:52 AM 73.9 °F - 72.0 °F 93% 30.06 in 10.0 mi Calm Calm - N/A   Clear
6:52 AM 73.9 °F - 72.0 °F 93% 30.07 in 10.0 mi Calm Calm - N/A   Clear
7:01 AM 73.9 °F - 72.0 °F 93% 30.08 in 10.0 mi Calm Calm - N/A   Mostly Cloudy
7:52 AM 73.9 °F - 73.0 °F 97% 30.08 in 10.0 mi Calm Calm - N/A   Mostly Cloudy
8:52 AM 75.9 °F - 73.9 °F 94% 30.10 in 10.0 mi Calm Calm - N/A   Mostly Cloudy
9:52 AM 81.0 °F 85.8 °F 73.0 °F 77% 30.12 in 10.0 mi NNE 5.8 mph - N/A   Scattered Clouds
10:52 AM 82.0 °F 87.4 °F 73.0 °F 74% 30.12 in 10.0 mi NE 6.9 mph - N/A   Scattered Clouds
11:52 AM 82.9 °F 88.8 °F 73.0 °F 72% 30.12 in 10.0 mi NE 9.2 mph - N/A   Scattered Clouds
12:52 PM 82.9 °F 90.2 °F 75.0 °F 77% 30.11 in 10.0 mi NNE 10.4 mph - N/A   Scattered Clouds
1:52 PM 82.9 °F 90.2 °F 75.0 °F 77% 30.09 in 10.0 mi NE 11.5 mph - N/A   Scattered Clouds
2:52 PM 82.9 °F 89.4 °F 73.9 °F 74% 30.07 in 10.0 mi NE 11.5 mph - 0.00 in   Scattered Clouds
3:52 PM 82.0 °F 87.9 °F 73.9 °F 76% 30.06 in 10.0 mi NE 15.0 mph - N/A   Scattered Clouds
4:52 PM 81.0 °F 85.8 °F 73.0 °F 77% 30.05 in 10.0 mi ENE 11.5 mph - N/A   Scattered Clouds
5:52 PM 80.1 °F 84.2 °F 73.0 °F 79% 30.06 in 10.0 mi NE 11.5 mph - N/A   Scattered Clouds
6:52 PM 78.1 °F - 72.0 °F 81% 30.06 in 10.0 mi NE 12.7 mph - N/A   Clear
7:52 PM 77.0 °F - 72.0 °F 84% 30.07 in 10.0 mi ENE 10.4 mph - N/A   Partly Cloudy
8:52 PM 77.0 °F - 72.0 °F 84% 30.08 in 10.0 mi ENE 10.4 mph - N/A   Clear
9:52 PM 77.0 °F - 71.1 °F 82% 30.10 in 10.0 mi ENE 10.4 mph - N/A   Clear
10:52 PM 77.0 °F - 71.1 °F 82% 30.10 in 10.0 mi East 6.9 mph - N/A   Clear
11:52 PM 77.0 °F - 71.1 °F 82% 30.09 in 10.0 mi ENE 8.1 mph - N/A   Clear